Location: DARK SKY Beskydy - Park tmavé oblohy, www.darkskybeskydy.cz
(49.4926°N, 18.5016°E)
Time: 01:10:00
(UTC+02:00)

Vanguard 1 - Pass Details

Date: 25 February 2024
Orbit: 653 x 3825 km, 34.2° (Epoch: 22 April)

Event Time Altitude Azimuth Distance (km) Brightness Sun altitude
Rises 22:44:31 0° 263° (W) 6,442 14.4 -46.6°
Reaches altitude 10° 22:48:26 10° 258° (WSW) 5,776 14.0 -46.9°
Enters shadow 22:59:25 39° 230° (SW) 4,523 13.1 -47.7°
Maximum altitude 23:06:33 49° 192° (SSW) 4,400 - -48.1°
Drops below altitude 10° 23:27:55 10° 127° (SE) 6,676 - -49.0°
Sets 23:32:55 0° 122° (ESE) 7,466 - -49.1°
